Regional Weather Roundup
Issued by NWS

Home | Current Version | Previous Version | Graphics & Text | Print | Product List | Glossary On
Versions: 1 2 3 4 5 6 7 8 9 10 11 12 13 14 15 16 17 18 19 20 21 22 23 24 25 26 27 28 29 30 31 32 33 34 35 36 37 38 39 40 41 42 43 44 45 46 47 48 49 50
000
ASUS43 KTOP 080908
RWRKS

WEATHER ROUNDUP FOR KANSAS
NATIONAL WEATHER SERVICE GOODLAND KS
300 AM CST MON FEB 08 2016

NOTE:  "FAIR" INDICATES FEW OR NO CLOUDS BELOW 12,000 FEET WITH NO
SIGNIFICANT WEATHER AND/OR OBSTRUCTIONS TO VISIBILITY.

KSZ001>006-013>018-027>032-041>047-081000-
NORTHWEST KANSAS

CITY           SKY/WX    TMP DP  RH WIND       PRES   REMARKS
GOODLAND       CLEAR     25  10  53 NW24G31   30.31S WCI   9
HAYS           CLEAR     28  12  50 NW20G25   30.25S WCI  15
HILL CITY      CLEAR     27  16  63 W16G26    30.26S WCI  15
RUSSELL        CLEAR     30  18  60 W16G24    30.22S WCI  19
$$

KSZ061>065-074>080-084>089-081000-
SOUTHWEST KANSAS

CITY           SKY/WX    TMP DP  RH WIND       PRES   REMARKS
DODGE CITY     CLEAR     29  12  49 NW18      30.30F WCI  16
ELKHART          N/A     27  11  51 W15         N/A  WCI  15
GARDEN CITY    CLEAR     30  14  51 NW16      30.32F WCI  19
GREAT BEND     CLEAR     30  14  51 NW16      30.26S WCI  19
LIBERAL        CLEAR     25  12  58 W10       30.37S WCI  15
PRATT          CLEAR     29  15  55 NW16      30.26F WCI  17
$$

KSZ066>073-081>083-090>101-081000-
SOUTHEAST KANSAS

CITY           SKY/WX    TMP DP  RH WIND       PRES   REMARKS
CHANUTE        CLEAR     36  18  48 NW18      30.09S WCI  26
COFFEYVILLE    CLEAR     38  19  46 NW23G31   30.13S WCI  27
HUTCHINSON     CLEAR     32  18  56 NW13      30.21F WCI  22
MEDICINE LODGE   N/A     30  18  60 NW10      30.27S WCI  21
NEWTON         CLEAR     34  16  47 NW20      30.18S WCI  22
PARSONS        CLEAR     37  19  48 NW20G29   30.11S WCI  27
WICHITA INTL   PTCLDY    37  17  44 NW22G31   30.20S WCI  26
WICHITA JABRA  CLEAR     35  18  49 NW23G29   30.18S WCI  23
WICHITA MCCONL CLEAR     37  17  44 NW23G30   30.18S WCI  25
WINFIELD       CLEAR     35  19  52 NW16G23   30.21S WCI  25
$$

KSZ007>012-019>026-033>040-048>060-102>105-081000-
NORTHEAST KANSAS

CITY           SKY/WX    TMP DP  RH WIND       PRES   REMARKS
CONCORDIA      CLOUDY    32  19  58 W16       30.13F WCI  21
EMPORIA        CLEAR     34  16  47 NW15G28   30.10S WCI  24
LAWRENCE       CLOUDY    35  19  52 NW25G45   30.03S WCI  23
MANHATTAN      CLEAR     33  18  53 W9G16     30.12F
MARYSVILLE     CLOUDY    32  21  64 NW22G28   30.06F WCI  19
OLATHE IND     CLOUDY    35  22  58 NW21G28   30.01S WCI  24
OLATHE EXE     CLOUDY    35  20  54 NW13      29.99F WCI  26
SALINA         MOCLDY    35  18  49 W18       30.18F WCI  24
TOPEKA BILLARD CLOUDY    37  16  42 NW25G37   30.06S WCI  25
TOPEKA FORBES  CLOUDY    37  18  46 NW23G38   30.04F WCI  26
$$




USA.gov is the U.S. government's official web portal to all federal, state and local government web resources and services.